Year,Month,Day,Hour,Minute,Value (Times are PST for temperature in C)
2014,07,13,00,00,17.60
2014,07,13,00,01,17.60
2014,07,13,00,02,17.50
2014,07,13,00,03,17.50
2014,07,13,00,04,17.50
2014,07,13,00,05,17.50
2014,07,13,00,06,17.50
2014,07,13,00,07,17.40
2014,07,13,00,08,17.40
2014,07,13,00,09,17.40
2014,07,13,00,10,17.40
2014,07,13,00,11,17.40
2014,07,13,00,12,17.40
2014,07,13,00,13,17.40
2014,07,13,00,14,17.40
2014,07,13,00,15,17.40
2014,07,13,00,16,17.40
2014,07,13,00,17,17.50
2014,07,13,00,18,17.50
2014,07,13,00,19,17.40
2014,07,13,00,20,17.40
2014,07,13,00,21,17.40
2014,07,13,00,22,17.40
2014,07,13,00,23,17.40
2014,07,13,00,24,17.40
2014,07,13,00,25,17.40
2014,07,13,00,26,17.30
2014,07,13,00,27,17.30
2014,07,13,00,28,17.30
2014,07,13,00,29,17.30
2014,07,13,00,30,17.20
2014,07,13,00,31,17.20
2014,07,13,00,32,17.20
2014,07,13,00,33,17.10
2014,07,13,00,34,17.10
2014,07,13,00,35,17.10
2014,07,13,00,36,17.10
2014,07,13,00,37,17.00
2014,07,13,00,38,17.00
2014,07,13,00,39,16.90
2014,07,13,00,40,16.90
2014,07,13,00,41,16.90
2014,07,13,00,42,16.90
2014,07,13,00,43,16.80
2014,07,13,00,44,16.80
2014,07,13,00,45,16.80
2014,07,13,00,46,16.80
2014,07,13,00,47,16.80
2014,07,13,00,48,16.80
2014,07,13,00,49,16.80
2014,07,13,00,50,16.70
2014,07,13,00,51,16.70
2014,07,13,00,52,16.70
2014,07,13,00,53,16.70
2014,07,13,00,54,16.70
2014,07,13,00,55,16.70
2014,07,13,00,56,16.70
2014,07,13,00,57,16.70
2014,07,13,00,58,16.70
2014,07,13,00,59,16.70
2014,07,13,01,00,16.70
2014,07,13,01,01,16.70
2014,07,13,01,02,16.70
2014,07,13,01,03,16.70
2014,07,13,01,04,16.70
2014,07,13,01,05,16.70
2014,07,13,01,06,16.70
2014,07,13,01,07,16.70
2014,07,13,01,08,16.70
2014,07,13,01,09,16.70
2014,07,13,01,10,16.70
2014,07,13,01,11,16.70
2014,07,13,01,12,16.70
2014,07,13,01,13,16.70
2014,07,13,01,14,16.70
2014,07,13,01,15,16.70
2014,07,13,01,16,16.70
2014,07,13,01,17,16.70
2014,07,13,01,18,16.70
2014,07,13,01,19,16.70
2014,07,13,01,20,16.70
2014,07,13,01,21,16.70
2014,07,13,01,22,16.70
2014,07,13,01,23,16.70
2014,07,13,01,24,16.70
2014,07,13,01,25,16.70
2014,07,13,01,26,16.70
2014,07,13,01,27,16.70
2014,07,13,01,28,16.70
2014,07,13,01,29,16.70
2014,07,13,01,30,16.70
2014,07,13,01,31,16.60
2014,07,13,01,32,16.60
2014,07,13,01,33,16.60
2014,07,13,01,34,16.60
2014,07,13,01,35,16.60
2014,07,13,01,36,16.60
2014,07,13,01,37,16.60
2014,07,13,01,38,16.60
2014,07,13,01,39,16.50
2014,07,13,01,40,16.50
2014,07,13,01,41,16.50
2014,07,13,01,42,16.50
2014,07,13,01,43,16.50
2014,07,13,01,44,16.50
2014,07,13,01,45,16.50
2014,07,13,01,46,16.50
2014,07,13,01,47,16.40
2014,07,13,01,48,16.40
2014,07,13,01,49,16.40
2014,07,13,01,50,16.40
2014,07,13,01,51,16.30
2014,07,13,01,52,16.30
2014,07,13,01,53,16.30
2014,07,13,01,54,16.30
2014,07,13,01,55,16.30
2014,07,13,01,56,16.30
2014,07,13,01,57,16.30
2014,07,13,01,58,16.30
2014,07,13,01,59,16.20
2014,07,13,02,00,16.20
2014,07,13,02,01,16.20
2014,07,13,02,02,16.10
2014,07,13,02,03,16.10
2014,07,13,02,04,16.10
2014,07,13,02,05,16.00
2014,07,13,02,06,16.00
2014,07,13,02,07,15.90
2014,07,13,02,08,15.90
2014,07,13,02,09,15.90
2014,07,13,02,10,15.90
2014,07,13,02,11,15.90
2014,07,13,02,12,15.90
2014,07,13,02,13,15.90
2014,07,13,02,14,15.90
2014,07,13,02,15,15.90
2014,07,13,02,16,15.90
2014,07,13,02,17,15.90
2014,07,13,02,18,15.90
2014,07,13,02,19,15.90
2014,07,13,02,20,15.90
2014,07,13,02,21,15.90
2014,07,13,02,22,15.90
2014,07,13,02,23,15.90
2014,07,13,02,24,15.90
2014,07,13,02,25,15.90
2014,07,13,02,26,15.90
2014,07,13,02,27,15.90
2014,07,13,02,28,15.90
2014,07,13,02,29,15.80
2014,07,13,02,30,15.80
2014,07,13,02,31,15.80
2014,07,13,02,32,15.80
2014,07,13,02,33,15.70
2014,07,13,02,34,15.70
2014,07,13,02,35,15.60
2014,07,13,02,36,15.60
2014,07,13,02,37,15.50
2014,07,13,02,38,15.50
2014,07,13,02,39,15.50
2014,07,13,02,40,15.40
2014,07,13,02,41,15.40
2014,07,13,02,42,15.40
2014,07,13,02,43,15.30
2014,07,13,02,44,15.30
2014,07,13,02,45,15.20
2014,07,13,02,46,15.20
2014,07,13,02,47,15.10
2014,07,13,02,48,15.10
2014,07,13,02,49,15.00
2014,07,13,02,50,15.00
2014,07,13,02,51,15.00
2014,07,13,02,52,14.90
2014,07,13,02,53,14.90
2014,07,13,02,54,14.90
2014,07,13,02,55,14.90
2014,07,13,02,56,14.90
2014,07,13,02,57,14.80
2014,07,13,02,58,14.80
2014,07,13,02,59,14.80
2014,07,13,03,00,14.80
2014,07,13,03,01,14.80
2014,07,13,03,02,14.80
2014,07,13,03,03,14.70
2014,07,13,03,04,14.70
2014,07,13,03,05,14.70
2014,07,13,03,06,14.70
2014,07,13,03,07,14.70
2014,07,13,03,08,14.70
2014,07,13,03,09,14.60
2014,07,13,03,10,14.60
2014,07,13,03,11,14.60
2014,07,13,03,12,14.60
2014,07,13,03,13,14.60
2014,07,13,03,14,14.60
2014,07,13,03,15,14.60
2014,07,13,03,16,14.60
2014,07,13,03,17,14.60
2014,07,13,03,18,14.60
2014,07,13,03,19,14.60
2014,07,13,03,20,14.50
2014,07,13,03,21,14.50
2014,07,13,03,22,14.50
2014,07,13,03,23,14.50
2014,07,13,03,24,14.50
2014,07,13,03,25,14.50
2014,07,13,03,26,14.50
2014,07,13,03,27,14.50
2014,07,13,03,28,14.40
2014,07,13,03,29,14.40
2014,07,13,03,30,14.40
2014,07,13,03,31,14.40
2014,07,13,03,32,14.40
2014,07,13,03,33,14.40
2014,07,13,03,34,14.40
2014,07,13,03,35,14.40
2014,07,13,03,36,14.40
2014,07,13,03,37,14.40
2014,07,13,03,38,14.40
2014,07,13,03,39,14.30
2014,07,13,03,40,14.30
2014,07,13,03,41,14.30
2014,07,13,03,42,14.30
2014,07,13,03,43,14.30
2014,07,13,03,44,14.30
2014,07,13,03,45,14.30
2014,07,13,03,46,14.30
2014,07,13,03,47,14.30
2014,07,13,03,48,14.30
2014,07,13,03,49,14.30
2014,07,13,03,50,14.20
2014,07,13,03,51,14.20
2014,07,13,03,52,14.20
2014,07,13,03,53,14.20
2014,07,13,03,54,14.20
2014,07,13,03,55,14.20
2014,07,13,03,56,14.20
2014,07,13,03,57,14.20
2014,07,13,03,58,14.20
2014,07,13,03,59,14.20
2014,07,13,04,00,14.20
2014,07,13,04,01,14.20
2014,07,13,04,02,14.20
2014,07,13,04,03,14.20
2014,07,13,04,04,14.20
2014,07,13,04,05,14.20
2014,07,13,04,06,14.20
2014,07,13,04,07,14.20
2014,07,13,04,08,14.20
2014,07,13,04,09,14.20
2014,07,13,04,10,14.20
2014,07,13,04,11,14.20
2014,07,13,04,12,14.20
2014,07,13,04,13,14.20
2014,07,13,04,14,14.20
2014,07,13,04,15,14.20
2014,07,13,04,16,14.20
2014,07,13,04,17,14.20
2014,07,13,04,18,14.20
2014,07,13,04,19,14.20
2014,07,13,04,20,14.20
2014,07,13,04,21,14.10
2014,07,13,04,22,14.10
2014,07,13,04,23,14.10
2014,07,13,04,24,14.10
2014,07,13,04,25,14.10
2014,07,13,04,26,14.10
2014,07,13,04,27,14.00
2014,07,13,04,28,14.00
2014,07,13,04,29,14.00
2014,07,13,04,30,14.00
2014,07,13,04,31,14.00
2014,07,13,04,32,14.00
2014,07,13,04,33,14.00
2014,07,13,04,34,14.00
2014,07,13,04,35,14.00
2014,07,13,04,36,14.00
2014,07,13,04,37,14.00
2014,07,13,04,38,14.10
2014,07,13,04,39,14.10
2014,07,13,04,40,14.10
2014,07,13,04,41,14.10
2014,07,13,04,42,14.10
2014,07,13,04,43,14.10
2014,07,13,04,44,14.10
2014,07,13,04,45,14.10
2014,07,13,04,46,14.00
2014,07,13,04,47,14.00
2014,07,13,04,48,14.00
2014,07,13,04,49,14.00
2014,07,13,04,50,14.00
2014,07,13,04,51,14.00
2014,07,13,04,52,14.00
2014,07,13,04,53,14.00
2014,07,13,04,54,14.00
2014,07,13,04,55,14.00
2014,07,13,04,56,14.00
2014,07,13,04,57,14.00
2014,07,13,04,58,14.00
2014,07,13,04,59,14.00
2014,07,13,05,00,14.00
2014,07,13,05,01,14.00
2014,07,13,05,02,14.10
2014,07,13,05,03,14.10
2014,07,13,05,04,14.10
2014,07,13,05,05,14.10
2014,07,13,05,06,14.10
2014,07,13,05,07,14.10
2014,07,13,05,08,14.10
2014,07,13,05,09,14.10
2014,07,13,05,10,14.10
2014,07,13,05,11,14.10
2014,07,13,05,12,14.10
2014,07,13,05,13,14.10
2014,07,13,05,14,14.10
2014,07,13,05,15,14.00
2014,07,13,05,16,14.00
2014,07,13,05,17,14.00
2014,07,13,05,18,14.00
2014,07,13,05,19,14.00
2014,07,13,05,20,14.00
2014,07,13,05,21,14.00
2014,07,13,05,22,14.00
2014,07,13,05,23,14.00
2014,07,13,05,24,14.00
2014,07,13,05,25,14.00
2014,07,13,05,26,13.90
2014,07,13,05,27,14.00
2014,07,13,05,28,14.00
2014,07,13,05,29,14.00
2014,07,13,05,30,14.00
2014,07,13,05,31,14.00
2014,07,13,05,32,14.00
2014,07,13,05,33,14.00
2014,07,13,05,34,14.00
2014,07,13,05,35,14.00
2014,07,13,05,36,13.90
2014,07,13,05,37,13.90
2014,07,13,05,38,13.90
2014,07,13,05,39,13.80
2014,07,13,05,40,13.80
2014,07,13,05,41,13.80
2014,07,13,05,42,13.70
2014,07,13,05,43,13.70
2014,07,13,05,44,13.60
2014,07,13,05,45,13.60
2014,07,13,05,46,13.60
2014,07,13,05,47,13.60
2014,07,13,05,48,13.60
2014,07,13,05,49,13.60
2014,07,13,05,50,13.50
2014,07,13,05,51,13.50
2014,07,13,05,52,13.50
2014,07,13,05,53,13.50
2014,07,13,05,54,13.50
2014,07,13,05,55,13.50
2014,07,13,05,56,13.50
2014,07,13,05,57,13.50
2014,07,13,05,58,13.50
2014,07,13,05,59,13.50
2014,07,13,06,00,13.50
2014,07,13,06,01,13.50
2014,07,13,06,02,13.50
2014,07,13,06,03,13.50
2014,07,13,06,04,13.50
2014,07,13,06,05,13.50
2014,07,13,06,06,13.50
2014,07,13,06,07,13.50
2014,07,13,06,08,13.50
2014,07,13,06,09,13.50
2014,07,13,06,10,13.50
2014,07,13,06,11,13.50
2014,07,13,06,12,13.50
2014,07,13,06,13,13.50
2014,07,13,06,14,13.50
2014,07,13,06,15,13.50
2014,07,13,06,16,13.60
2014,07,13,06,17,13.60
2014,07,13,06,18,13.60
2014,07,13,06,19,13.60
2014,07,13,06,20,13.60
2014,07,13,06,21,13.60
2014,07,13,06,22,13.70
2014,07,13,06,23,13.70
2014,07,13,06,24,13.70
2014,07,13,06,25,13.80
2014,07,13,06,26,13.80
2014,07,13,06,27,13.80
2014,07,13,06,28,13.90
2014,07,13,06,29,14.00
2014,07,13,06,30,14.10
2014,07,13,06,31,14.20
2014,07,13,06,32,14.30
2014,07,13,06,33,14.40
2014,07,13,06,34,14.50
2014,07,13,06,35,14.60
2014,07,13,06,36,14.60
2014,07,13,06,37,14.70
2014,07,13,06,38,14.80
2014,07,13,06,39,14.80
2014,07,13,06,40,14.90
2014,07,13,06,41,15.00
2014,07,13,06,42,15.10
2014,07,13,06,43,15.10
2014,07,13,06,44,15.20
2014,07,13,06,45,15.20
2014,07,13,06,46,15.30
2014,07,13,06,47,15.40
2014,07,13,06,48,15.50
2014,07,13,06,49,15.50
2014,07,13,06,50,15.60
2014,07,13,06,51,15.60
2014,07,13,06,52,15.70
2014,07,13,06,53,15.70
2014,07,13,06,54,15.80
2014,07,13,06,55,15.80
2014,07,13,06,56,15.80
2014,07,13,06,57,15.80
2014,07,13,06,58,15.80
2014,07,13,06,59,15.80
2014,07,13,07,00,15.80
2014,07,13,07,01,15.80
2014,07,13,07,02,15.80
2014,07,13,07,03,15.80
2014,07,13,07,04,15.80
2014,07,13,07,05,15.80
2014,07,13,07,06,15.80
2014,07,13,07,07,15.80
2014,07,13,07,08,15.90
2014,07,13,07,09,15.90
2014,07,13,07,10,15.90
2014,07,13,07,11,15.90
2014,07,13,07,12,15.90
2014,07,13,07,13,15.90
2014,07,13,07,14,15.90
2014,07,13,07,15,16.00
2014,07,13,07,16,16.00
2014,07,13,07,17,16.00
2014,07,13,07,18,16.00
2014,07,13,07,19,16.00
2014,07,13,07,20,16.10
2014,07,13,07,21,16.10
2014,07,13,07,22,16.10
2014,07,13,07,23,16.20
2014,07,13,07,24,16.20
2014,07,13,07,25,16.20
2014,07,13,07,26,16.30
2014,07,13,07,27,16.30
2014,07,13,07,28,16.40
2014,07,13,07,29,16.50
2014,07,13,07,30,16.60
2014,07,13,07,31,16.70
2014,07,13,07,32,16.70
2014,07,13,07,33,16.80
2014,07,13,07,34,16.80
2014,07,13,07,35,16.90
2014,07,13,07,36,16.90
2014,07,13,07,37,17.00
2014,07,13,07,38,17.10
2014,07,13,07,39,17.10
2014,07,13,07,40,17.20
2014,07,13,07,41,17.20
2014,07,13,07,42,17.30
2014,07,13,07,43,17.40
2014,07,13,07,44,17.40
2014,07,13,07,45,17.50
2014,07,13,07,46,17.60
2014,07,13,07,47,17.70
2014,07,13,07,48,17.80
2014,07,13,07,49,17.90
2014,07,13,07,50,18.00
2014,07,13,07,51,18.20
2014,07,13,07,52,18.30
2014,07,13,07,53,18.40
2014,07,13,07,54,18.50
2014,07,13,07,55,18.60
2014,07,13,07,56,18.70
2014,07,13,07,57,18.70
2014,07,13,07,58,18.80
2014,07,13,07,59,18.80
2014,07,13,08,00,18.80
2014,07,13,08,01,18.80
2014,07,13,08,02,18.80
2014,07,13,08,03,18.80
2014,07,13,08,04,18.80
2014,07,13,08,05,18.80
2014,07,13,08,06,18.80
2014,07,13,08,07,18.80
2014,07,13,08,08,18.90
2014,07,13,08,09,18.90
2014,07,13,08,10,19.00
2014,07,13,08,11,19.00
2014,07,13,08,12,19.10
2014,07,13,08,13,19.10
2014,07,13,08,14,19.20
2014,07,13,08,15,19.20
2014,07,13,08,16,19.20
2014,07,13,08,17,19.30
2014,07,13,08,18,19.30
2014,07,13,08,19,19.40
2014,07,13,08,20,19.40
2014,07,13,08,21,19.50
2014,07,13,08,22,19.60
2014,07,13,08,23,19.60
2014,07,13,08,24,19.60
2014,07,13,08,25,19.70
2014,07,13,08,26,19.80
2014,07,13,08,27,19.80
2014,07,13,08,28,19.90
2014,07,13,08,29,19.90
2014,07,13,08,30,19.90
2014,07,13,08,31,20.00
2014,07,13,08,32,20.00
2014,07,13,08,33,20.10
2014,07,13,08,34,20.10
2014,07,13,08,35,20.10
2014,07,13,08,36,20.20
2014,07,13,08,37,20.30
2014,07,13,08,38,20.40
2014,07,13,08,39,20.50
2014,07,13,08,40,20.60
2014,07,13,08,41,20.70
2014,07,13,08,42,20.80
2014,07,13,08,43,20.80
2014,07,13,08,44,20.80
2014,07,13,08,45,20.80
2014,07,13,08,46,20.80
2014,07,13,08,47,20.90
2014,07,13,08,48,21.00
2014,07,13,08,49,21.10
2014,07,13,08,50,21.20
2014,07,13,08,51,21.30
2014,07,13,08,52,21.40
2014,07,13,08,53,21.60
2014,07,13,08,54,21.60
2014,07,13,08,55,21.70
2014,07,13,08,56,21.80
2014,07,13,08,57,21.90
2014,07,13,08,58,22.10
2014,07,13,08,59,22.10
2014,07,13,09,00,22.20
2014,07,13,09,01,22.20
2014,07,13,09,02,22.30
2014,07,13,09,03,22.30
2014,07,13,09,04,22.40
2014,07,13,09,05,22.50
2014,07,13,09,06,22.50
2014,07,13,09,07,22.60
2014,07,13,09,08,22.60
2014,07,13,09,09,22.70
2014,07,13,09,10,22.70
2014,07,13,09,11,22.80
2014,07,13,09,12,22.90
2014,07,13,09,13,23.00
2014,07,13,09,14,23.10
2014,07,13,09,15,23.20
2014,07,13,09,16,23.30
2014,07,13,09,17,23.50
2014,07,13,09,18,23.60
2014,07,13,09,19,23.60
2014,07,13,09,20,23.70
2014,07,13,09,21,23.70
2014,07,13,09,22,23.80
2014,07,13,09,23,23.80
2014,07,13,09,24,23.80
2014,07,13,09,25,23.80
2014,07,13,09,26,23.80
2014,07,13,09,27,23.80
2014,07,13,09,28,23.80
2014,07,13,09,29,23.90
2014,07,13,09,30,23.90
2014,07,13,09,31,23.90
2014,07,13,09,32,23.90
2014,07,13,09,33,24.00
2014,07,13,09,34,24.10
2014,07,13,09,35,24.20
2014,07,13,09,36,24.30
2014,07,13,09,37,24.40
2014,07,13,09,38,24.50
2014,07,13,09,39,24.60
2014,07,13,09,40,24.60
2014,07,13,09,41,24.50
2014,07,13,09,42,24.50
2014,07,13,09,43,24.50
2014,07,13,09,44,24.50
2014,07,13,09,45,24.50
2014,07,13,09,46,24.50
2014,07,13,09,47,24.40
2014,07,13,09,48,24.40
2014,07,13,09,49,24.50
2014,07,13,09,50,24.60
2014,07,13,09,51,24.60
2014,07,13,09,52,24.70
2014,07,13,09,53,24.70
2014,07,13,09,54,24.70
2014,07,13,09,55,24.60
2014,07,13,09,56,24.60
2014,07,13,09,57,24.50
2014,07,13,09,58,24.40
2014,07,13,09,59,24.40
2014,07,13,10,00,24.40
2014,07,13,10,01,24.50
2014,07,13,10,02,24.50
2014,07,13,10,03,24.60
2014,07,13,10,04,24.60
2014,07,13,10,05,24.70
2014,07,13,10,06,24.70
2014,07,13,10,07,24.70
2014,07,13,10,08,24.60
2014,07,13,10,09,24.50
2014,07,13,10,10,24.40
2014,07,13,10,11,24.30
2014,07,13,10,12,24.20
2014,07,13,10,13,24.10
2014,07,13,10,14,24.10
2014,07,13,10,15,24.00
2014,07,13,10,16,23.90
2014,07,13,10,17,24.00
2014,07,13,10,18,24.10
2014,07,13,10,19,24.20
2014,07,13,10,20,24.20
2014,07,13,10,21,24.20
2014,07,13,10,22,24.20
2014,07,13,10,23,24.30
2014,07,13,10,24,24.40
2014,07,13,10,25,24.40
2014,07,13,10,26,24.40
2014,07,13,10,27,24.40
2014,07,13,10,28,24.40
2014,07,13,10,29,24.30
2014,07,13,10,30,24.30
2014,07,13,10,31,24.30
2014,07,13,10,32,24.40
2014,07,13,10,33,24.50
2014,07,13,10,34,24.60
2014,07,13,10,35,24.60
2014,07,13,10,36,24.70
2014,07,13,10,37,24.80
2014,07,13,10,38,24.90
2014,07,13,10,39,24.80
2014,07,13,10,40,24.90
2014,07,13,10,41,25.00
2014,07,13,10,42,25.00
2014,07,13,10,43,25.00
2014,07,13,10,44,25.10
2014,07,13,10,45,25.10
2014,07,13,10,46,25.10
2014,07,13,10,47,25.20
2014,07,13,10,48,25.20
2014,07,13,10,49,25.30
2014,07,13,10,50,25.40
2014,07,13,10,51,25.40
2014,07,13,10,52,25.30
2014,07,13,10,53,25.30
2014,07,13,10,54,25.20
2014,07,13,10,55,25.10
2014,07,13,10,56,25.10
2014,07,13,10,57,25.10
2014,07,13,10,58,25.20
2014,07,13,10,59,25.20
2014,07,13,11,00,25.30
2014,07,13,11,01,25.30
2014,07,13,11,02,25.30
2014,07,13,11,03,25.30
2014,07,13,11,04,25.30
2014,07,13,11,05,25.30
2014,07,13,11,06,25.30
2014,07,13,11,07,25.40
2014,07,13,11,08,25.40
2014,07,13,11,09,25.40
2014,07,13,11,10,25.40
2014,07,13,11,11,25.50
2014,07,13,11,12,25.60
2014,07,13,11,13,25.70
2014,07,13,11,14,25.80
2014,07,13,11,15,25.90
2014,07,13,11,16,26.00
2014,07,13,11,17,26.10
2014,07,13,11,18,26.30
2014,07,13,11,19,26.40
2014,07,13,11,20,26.40
2014,07,13,11,21,26.50
2014,07,13,11,22,26.40
2014,07,13,11,23,26.50
2014,07,13,11,24,26.60
2014,07,13,11,25,26.70
2014,07,13,11,26,26.80
2014,07,13,11,27,26.90
2014,07,13,11,28,26.90
2014,07,13,11,29,27.00
2014,07,13,11,30,27.10
2014,07,13,11,31,27.10
2014,07,13,11,32,27.10
2014,07,13,11,33,27.00
2014,07,13,11,34,27.00
2014,07,13,11,35,26.90
2014,07,13,11,36,26.70
2014,07,13,11,37,26.60
2014,07,13,11,38,26.50
2014,07,13,11,39,26.40
2014,07,13,11,40,26.30
2014,07,13,11,41,26.20
2014,07,13,11,42,26.20
2014,07,13,11,43,26.20
2014,07,13,11,44,26.10
2014,07,13,11,45,26.00
2014,07,13,11,46,25.90
2014,07,13,11,47,25.90
2014,07,13,11,48,25.80
2014,07,13,11,49,25.80
2014,07,13,11,50,25.70
2014,07,13,11,51,25.60
2014,07,13,11,52,25.50
2014,07,13,11,53,25.50
2014,07,13,11,54,25.40
2014,07,13,11,55,25.50
2014,07,13,11,56,25.50
2014,07,13,11,57,25.50
2014,07,13,11,58,25.40
2014,07,13,11,59,25.30
2014,07,13,12,00,25.10
2014,07,13,12,01,24.80
2014,07,13,12,02,24.60
2014,07,13,12,03,24.30
2014,07,13,12,04,24.10
2014,07,13,12,05,23.90
2014,07,13,12,06,23.70
2014,07,13,12,07,23.40
2014,07,13,12,08,23.20
2014,07,13,12,09,23.00
2014,07,13,12,10,22.90
2014,07,13,12,11,22.80
2014,07,13,12,12,22.70
2014,07,13,12,13,22.70
2014,07,13,12,14,22.70
2014,07,13,12,15,22.80
2014,07,13,12,16,22.90
2014,07,13,12,17,23.10
2014,07,13,12,18,23.30
2014,07,13,12,19,23.40
2014,07,13,12,20,23.50
2014,07,13,12,21,23.60
2014,07,13,12,22,23.70
2014,07,13,12,23,23.70
2014,07,13,12,24,23.80
2014,07,13,12,25,24.00
2014,07,13,12,26,24.10
2014,07,13,12,27,24.20
2014,07,13,12,28,24.30
2014,07,13,12,29,24.50
2014,07,13,12,30,24.60
2014,07,13,12,31,24.70
2014,07,13,12,32,24.80
2014,07,13,12,33,24.80
2014,07,13,12,34,24.80
2014,07,13,12,35,24.90
2014,07,13,12,36,25.00
2014,07,13,12,37,25.10
2014,07,13,12,38,25.20
2014,07,13,12,39,25.30
2014,07,13,12,40,25.40
2014,07,13,12,41,25.40
2014,07,13,12,42,25.50
2014,07,13,12,43,25.60
2014,07,13,12,44,25.60
2014,07,13,12,45,25.50
2014,07,13,12,46,25.40
2014,07,13,12,47,25.30
2014,07,13,12,48,25.20
2014,07,13,12,49,25.20
2014,07,13,12,50,25.30
2014,07,13,12,51,25.30
2014,07,13,12,52,25.40
2014,07,13,12,53,25.50
2014,07,13,12,54,25.50
2014,07,13,12,55,25.60
2014,07,13,12,56,25.70
2014,07,13,12,57,25.70
2014,07,13,12,58,25.80
2014,07,13,12,59,25.90
2014,07,13,13,00,25.90
2014,07,13,13,01,25.90
2014,07,13,13,02,26.00
2014,07,13,13,03,26.10
2014,07,13,13,04,26.30
2014,07,13,13,05,26.50
2014,07,13,13,06,26.80
2014,07,13,13,07,26.90
2014,07,13,13,08,27.00
2014,07,13,13,09,27.10
2014,07,13,13,10,27.10
2014,07,13,13,11,27.20
2014,07,13,13,12,27.20
2014,07,13,13,13,27.20
2014,07,13,13,14,27.20
2014,07,13,13,15,27.20
2014,07,13,13,16,27.20
2014,07,13,13,17,27.20
2014,07,13,13,18,27.30
2014,07,13,13,19,27.40
2014,07,13,13,20,27.40
2014,07,13,13,21,27.50
2014,07,13,13,22,27.60
2014,07,13,13,23,27.70
2014,07,13,13,24,27.80
2014,07,13,13,25,28.00
2014,07,13,13,26,28.10
2014,07,13,13,27,28.20
2014,07,13,13,28,28.20
2014,07,13,13,29,28.20
2014,07,13,13,30,28.10
2014,07,13,13,31,28.10
2014,07,13,13,32,28.20
2014,07,13,13,33,28.30
2014,07,13,13,34,28.40
2014,07,13,13,35,28.40
2014,07,13,13,36,28.30
2014,07,13,13,37,28.30
2014,07,13,13,38,28.30
2014,07,13,13,39,28.30
2014,07,13,13,40,28.30
2014,07,13,13,41,28.30
2014,07,13,13,42,28.40
2014,07,13,13,43,28.50
2014,07,13,13,44,28.60
2014,07,13,13,45,28.70
2014,07,13,13,46,28.80
2014,07,13,13,47,29.00
2014,07,13,13,48,29.10
2014,07,13,13,49,29.10
2014,07,13,13,50,29.00
2014,07,13,13,51,29.00
2014,07,13,13,52,29.00
2014,07,13,13,53,29.10
2014,07,13,13,54,29.00
2014,07,13,13,55,28.80
2014,07,13,13,56,28.60
2014,07,13,13,57,28.60
2014,07,13,13,58,28.50
2014,07,13,13,59,28.60
2014,07,13,14,00,28.70
2014,07,13,14,01,28.80
2014,07,13,14,02,28.90
2014,07,13,14,03,29.00
2014,07,13,14,04,28.90
2014,07,13,14,05,28.80
2014,07,13,14,06,28.80
2014,07,13,14,07,28.60
2014,07,13,14,08,28.40
2014,07,13,14,09,28.10
2014,07,13,14,10,27.90
2014,07,13,14,11,27.80
2014,07,13,14,12,27.70
2014,07,13,14,13,27.60
2014,07,13,14,14,27.40
2014,07,13,14,15,27.20
2014,07,13,14,16,27.10
2014,07,13,14,17,27.10
2014,07,13,14,18,27.20
2014,07,13,14,19,27.10
2014,07,13,14,20,26.90
2014,07,13,14,21,26.80
2014,07,13,14,22,26.80
2014,07,13,14,23,26.70
2014,07,13,14,24,26.70
2014,07,13,14,25,26.60
2014,07,13,14,26,26.50
2014,07,13,14,27,26.40
2014,07,13,14,28,26.30
2014,07,13,14,29,26.30
2014,07,13,14,30,26.40
2014,07,13,14,31,26.40
2014,07,13,14,32,26.40
2014,07,13,14,33,26.50
2014,07,13,14,34,26.60
2014,07,13,14,35,26.70
2014,07,13,14,36,26.80
2014,07,13,14,37,26.90
2014,07,13,14,38,27.00
2014,07,13,14,39,27.00
2014,07,13,14,40,27.00
2014,07,13,14,41,27.00
2014,07,13,14,42,27.00
2014,07,13,14,43,27.00
2014,07,13,14,44,27.10
2014,07,13,14,45,27.10
2014,07,13,14,46,27.20
2014,07,13,14,47,27.20
2014,07,13,14,48,27.40
2014,07,13,14,49,27.50
2014,07,13,14,50,27.60
2014,07,13,14,51,27.70
2014,07,13,14,52,27.60
2014,07,13,14,53,27.60
2014,07,13,14,54,27.60
2014,07,13,14,55,27.60
2014,07,13,14,56,27.70
2014,07,13,14,57,27.80
2014,07,13,14,58,27.90
2014,07,13,14,59,28.00
2014,07,13,15,00,28.00
2014,07,13,15,01,28.10
2014,07,13,15,02,28.00
2014,07,13,15,03,28.00
2014,07,13,15,04,27.90
2014,07,13,15,05,27.90
2014,07,13,15,06,27.90
2014,07,13,15,07,27.90
2014,07,13,15,08,27.80
2014,07,13,15,09,27.70
2014,07,13,15,10,27.60
2014,07,13,15,11,27.50
2014,07,13,15,12,27.40
2014,07,13,15,13,27.30
2014,07,13,15,14,27.20
2014,07,13,15,15,27.00
2014,07,13,15,16,27.00
2014,07,13,15,17,26.90
2014,07,13,15,18,27.00
2014,07,13,15,19,27.00
2014,07,13,15,20,26.90
2014,07,13,15,21,26.90
2014,07,13,15,22,26.80
2014,07,13,15,23,26.70
2014,07,13,15,24,26.50
2014,07,13,15,25,26.30
2014,07,13,15,26,26.20
2014,07,13,15,27,26.10
2014,07,13,15,28,26.10
2014,07,13,15,29,26.00
2014,07,13,15,30,25.90
2014,07,13,15,31,25.80
2014,07,13,15,32,25.80
2014,07,13,15,33,25.80
2014,07,13,15,34,25.80
2014,07,13,15,35,25.80
2014,07,13,15,36,25.80
2014,07,13,15,37,25.70
2014,07,13,15,38,25.80
2014,07,13,15,39,25.80
2014,07,13,15,40,25.90
2014,07,13,15,41,25.90
2014,07,13,15,42,25.90
2014,07,13,15,43,25.80
2014,07,13,15,44,25.90
2014,07,13,15,45,26.00
2014,07,13,15,46,26.10
2014,07,13,15,47,26.20
2014,07,13,15,48,26.30
2014,07,13,15,49,26.30
2014,07,13,15,50,26.40
2014,07,13,15,51,26.40
2014,07,13,15,52,26.50
2014,07,13,15,53,26.50
2014,07,13,15,54,26.50
2014,07,13,15,55,26.60
2014,07,13,15,56,26.60
2014,07,13,15,57,26.60
2014,07,13,15,58,26.70
2014,07,13,15,59,26.80
2014,07,13,16,00,26.80
2014,07,13,16,01,26.80
2014,07,13,16,02,26.70
2014,07,13,16,03,26.70
2014,07,13,16,04,26.70
2014,07,13,16,05,26.70
2014,07,13,16,06,26.60
2014,07,13,16,07,26.60
2014,07,13,16,08,26.60
2014,07,13,16,09,26.70
2014,07,13,16,10,26.70
2014,07,13,16,11,26.60
2014,07,13,16,12,26.50
2014,07,13,16,13,26.40
2014,07,13,16,14,26.40
2014,07,13,16,15,26.40
2014,07,13,16,16,26.40
2014,07,13,16,17,26.40
2014,07,13,16,18,26.40
2014,07,13,16,19,26.40
2014,07,13,16,20,26.40
2014,07,13,16,21,26.50
2014,07,13,16,22,26.60
2014,07,13,16,23,26.50
2014,07,13,16,24,26.40
2014,07,13,16,25,26.50
2014,07,13,16,26,26.60
2014,07,13,16,27,26.70
2014,07,13,16,28,26.80
2014,07,13,16,29,26.90
2014,07,13,16,30,27.00
2014,07,13,16,31,27.00
2014,07,13,16,32,27.20
2014,07,13,16,33,27.20
2014,07,13,16,34,27.10
2014,07,13,16,35,27.10
2014,07,13,16,36,27.10
2014,07,13,16,37,26.90
2014,07,13,16,38,26.90
2014,07,13,16,39,26.90
2014,07,13,16,40,27.00
2014,07,13,16,41,27.00
2014,07,13,16,42,27.10
2014,07,13,16,43,27.20
2014,07,13,16,44,27.40
2014,07,13,16,45,27.50
2014,07,13,16,46,27.60
2014,07,13,16,47,27.60
2014,07,13,16,48,27.60
2014,07,13,16,49,27.60
2014,07,13,16,50,27.70
2014,07,13,16,51,27.70
2014,07,13,16,52,27.70
2014,07,13,16,53,27.70
2014,07,13,16,54,27.60
2014,07,13,16,55,27.70
2014,07,13,16,56,27.70
2014,07,13,16,57,27.80
2014,07,13,16,58,27.80
2014,07,13,16,59,27.60
2014,07,13,17,00,27.50
2014,07,13,17,01,27.40
2014,07,13,17,02,27.40
2014,07,13,17,03,27.40
2014,07,13,17,04,27.40
2014,07,13,17,05,27.40
2014,07,13,17,06,27.30
2014,07,13,17,07,27.30
2014,07,13,17,08,27.30
2014,07,13,17,09,27.30
2014,07,13,17,10,27.30
2014,07,13,17,11,27.30
2014,07,13,17,12,27.30
2014,07,13,17,13,27.30
2014,07,13,17,14,27.30
2014,07,13,17,15,27.20
2014,07,13,17,16,27.20
2014,07,13,17,17,27.20
2014,07,13,17,18,27.30
2014,07,13,17,19,27.30